Wind_Speed
116 118 110 98 104 113 110 102 97 91 90 92 86 79 72 79 75 73 72 72 73 70 76 73 78 75 78 80 82 84 85 81 75 74 69 66 64 62 58 57 57 47 52 54
114 108 103 104 112 111 107 103 95 98 95 93 93 83 75 75 72 71 72 72 69 70 71 72 73 80 79 77 77 72 68 67 69 69 66 63 59 57 54 53 50 45 50 53
113 106 107 107 105 105 103 102 100 103 103 102 102 97 88 74 75 74 69 71 73 77 76 77 79 76 70 66 65 60 59 61 65 62 57 53 52 51 50 48 46 47 49 51
109 106 110 110 105 103 97 97 97 98 95 94 101 91 87 82 78 75 74 77 82 79 76 73 69 64 61 57 57 59 59 60 57 53 46 43 44 46 45 43 44 45 48 50
104 108 109 107 107 106 99 99 97 95 90 90 90 89 67 79 78 81 76 74 74 70 63 61 59 57 58 55 52 54 54 50 46 42 38 38 40 40 39 40 41 43 45 45
113 112 108 104 105 105 101 100 100 96 91 86 80 79 65 71 73 70 62 59 57 56 53 54 53 50 48 46 47 49 43 39 35 32 31 32 34 36 36 38 39 40 39 41
120 119 111 108 103 99 96 96 97 95 92 79 76 72 62 65 66 58 52 49 49 49 47 43 39 37 42 41 39 35 32 31 26 26 26 28 32 34 36 36 37 35 33 33
110 117 113 111 107 102 99 96 91 83 79 70 67 57 53 53 48 45 45 42 41 36 31 32 32 34 35 33 28 25 23 19 21 23 24 28 31 33 34 35 32 26 27 26
93 101 109 113 112 108 103 96 90 86 80 73 62 53 50 52 39 33 34 35 33 25 25 27 28 31 26 22 21 15 13 17 21 22 26 29 31 33 31 29 23 23 23 20
87 89 96 106 111 107 103 99 98 89 83 73 63 55 43 48 37 27 25 27 23 21 20 21 25 18 14 12 11 13 15 17 21 26 28 27 29 29 25 21 17 20 19 17
80 82 90 96 97 102 101 98 96 94 86 73 65 56 48 50 41 33 30 30 26 20 19 18 17 10 8 9 11 18 20 21 26 28 24 28 27 20 18 16 15 17 14 12
68 79 86 83 83 89 95 98 93 89 83 76 64 56 62 54 41 35 34 29 25 21 15 13 13 14 11 11 14 18 20 23 27 22 25 27 22 19 15 15 13 14 12 6
53 64 81 84 78 83 84 88 90 85 80 72 68 58 62 56 46 38 33 27 24 17 11 16 13 18 16 12 18 19 20 24 22 22 26 23 17 18 16 13 13 15 12 4
48 58 69 81 80 78 75 79 80 79 75 70 60 71 62 56 50 39 27 28 24 18 14 14 13 19 18 19 20 24 24 24 21 23 25 19 15 14 16 13 17 16 8 1
40 48 54 63 70 70 70 70 68 69 71 71 67 67 62 59 53 44 37 30 27 23 16 15 14 16 16 18 24 23 23 21 21 24 23 18 13 13 15 15 15 14 4 2
34 40 46 50 57 64 68 65 60 63 65 65 68 63 64 59 49 44 40 32 29 22 19 17 15 13 14 16 23 21 21 22 23 23 22 16 13 13 15 12 9 5 3 6
26 30 36 42 48 58 67 70 63 64 62 59 61 63 62 53 43 33 27 28 27 23 22 20 15 15 14 16 21 24 21 23 23 23 18 12 12 11 15 9 2 7 11 8
23 27 34 39 46 51 58 67 64 64 61 57 61 64 51 42 36 25 16 29 26 24 27 19 20 15 15 17 21 21 19 21 22 20 12 11 8 9 10 5 4 7 10 12
21 27 35 41 45 48 58 64 70 63 62 57 66 54 49 39 32 50 48 38 31 29 29 21 20 16 13 14 19 18 19 20 20 15 9 10 5 9 8 9 6 8 9 9
26 30 33 33 37 46 52 57 63 66 66 67 58 55 52 47 34 38 44 42 32 35 29 24 20 17 11 18 17 16 17 19 17 10 8 10 5 10 9 10 6 7 7 8
25 27 31 36 39 46 51 58 67 70 69 59 55 57 64 63 59 45 41 40 34 35 30 26 21 16 12 16 15 16 16 17 15 9 7 9 7 9 12 7 4 2 4 2
34 37 40 40 42 45 50 58 66 68 63 55 57 63 72 68 49 44 41 36 35 32 30 26 21 15 12 19 15 15 15 14 12 6 8 8 3 13 16 10 5 2 4 4
38 45 46 45 48 43 48 58 64 62 59 56 57 58 63 59 57 48 33 43 38 34 31 28 19 11 9 14 11 13 14 12 9 4 6 5 2 11 15 11 6 4 5 4
35 43 50 53 60 63 60 58 61 58 61 58 52 60 62 49 50 55 55 46 42 34 35 30 20 13 12 11 11 12 12 9 7 4 4 4 2 6 13 13 8 3 4 6
40 45 49 52 59 66 69 75 80 67 65 59 57 67 64 53 50 54 53 56 48 38 36 26 24 17 14 9 10 12 10 7 4 4 1 1 2 3 6 10 10 8 4 8
41 45 51 53 54 57 67 75 79 81 76 65 63 75 73 69 68 60 51 48 52 41 35 30 27 21 18 12 11 13 11 10 4 3 6 4 4 3 5 6 7 8 8 6
Wind_Direction
242 244 247 249 248 249 250 251 251 251 248 250 254 252 249 255 258 262 265 267 269 271 278 278 278 279 286 287 287 287 288 290 288 286 284 285 286 289 293 295 296 297 294 296
241 243 243 243 246 247 249 246 246 244 247 249 252 257 252 256 260 259 263 264 271 273 277 279 279 285 286 283 285 286 287 285 284 285 286 287 287 288 290 291 296 294 297 298
240 241 243 243 244 246 247 249 248 249 249 250 254 256 258 257 258 259 263 265 268 268 279 282 281 280 279 282 284 286 284 283 283 286 288 289 289 290 292 296 297 297 300 302
237 238 241 242 243 244 245 247 247 248 250 252 255 253 256 253 253 258 261 267 265 272 277 278 277 280 282 282 281 281 282 280 281 285 289 292 294 296 298 297 301 303 302 306
237 237 238 240 242 244 242 243 244 247 249 250 254 257 254 256 258 257 260 263 267 272 273 275 276 277 276 279 279 279 279 282 286 285 287 292 293 294 294 299 303 303 305 306
237 238 239 238 240 242 241 243 245 246 248 249 252 256 255 254 254 258 262 264 267 271 272 269 270 273 276 277 276 275 279 285 284 285 288 289 291 293 299 302 305 304 306 305
234 237 236 238 238 240 243 245 245 246 249 250 248 252 252 254 254 259 264 267 267 266 264 263 269 270 271 274 276 283 282 283 285 283 286 288 291 299 301 306 301 303 301 306
234 235 236 238 238 238 239 242 244 245 246 245 245 247 249 250 255 261 258 259 256 253 250 260 265 269 269 281 287 279 276 279 277 278 285 290 302 304 304 300 301 300 303 300
232 234 235 235 236 237 238 239 241 243 245 245 246 242 238 251 252 246 247 242 243 242 252 259 263 267 282 289 281 277 278 282 282 286 292 300 304 302 302 295 297 309 304 301
231 229 232 233 233 235 237 236 237 238 240 242 243 241 235 242 245 229 226 230 235 243 256 257 260 281 283 273 272 280 290 285 293 296 301 303 302 302 293 295 294 310 303 302
230 229 232 232 231 231 232 235 236 235 235 235 235 240 235 236 233 225 222 235 243 241 257 269 274 269 248 262 296 297 289 290 299 302 304 306 306 295 292 274 291 317 307 299
229 228 231 233 231 230 229 230 231 233 234 233 229 229 231 237 235 231 232 233 244 239 242 282 260 240 252 273 299 293 282 292 301 303 302 310 304 297 275 272 296 323 315 287
230 225 224 231 229 229 228 229 229 228 229 230 227 227 232 234 233 229 228 229 237 233 242 279 249 242 257 285 301 295 285 299 303 302 313 312 299 293 263 276 294 313 322 282
219 223 222 225 224 225 225 226 225 225 225 225 219 223 228 228 230 226 225 229 230 234 251 269 244 237 260 263 292 300 294 302 298 308 315 308 296 282 249 268 294 317 309 280
220 219 218 223 222 222 220 222 223 221 221 221 221 224 225 225 224 223 223 225 230 226 244 240 236 234 257 264 297 296 304 298 304 309 313 298 304 265 248 265 300 320 277 133
217 217 217 214 215 216 217 218 215 213 215 213 211 218 220 221 222 223 223 228 230 230 237 247 222 237 250 279 298 295 303 298 304 310 307 295 306 263 241 265 323 29 125 115
211 209 209 207 206 209 208 211 209 207 207 206 203 211 215 209 215 218 226 230 230 223 227 238 242 234 248 294 289 301 297 296 307 311 303 300 292 247 236 262 283 59 72 99
197 194 195 195 198 201 201 204 203 202 200 198 197 207 204 197 190 140 200 221 220 217 224 225 230 230 251 272 290 302 291 301 310 312 299 321 282 224 227 205 179 112 78 70
177 188 189 190 185 189 196 199 198 194 194 191 199 197 190 169 173 176 180 212 226 219 227 224 220 233 256 298 296 289 292 308 314 313 325 324 266 212 208 202 151 124 116 89
171 176 179 180 181 183 189 193 189 188 188 193 194 191 177 155 152 209 199 216 223 226 221 223 219 233 258 286 291 285 296 308 315 315 337 322 242 201 210 201 172 139 107 104
160 159 164 171 175 178 181 184 184 186 188 190 190 180 179 169 177 171 179 198 214 204 210 213 210 215 260 278 284 280 297 308 315 318 346 325 241 192 208 192 215 119 73 94
150 154 162 168 169 174 175 180 179 181 185 189 189 184 182 186 185 185 180 191 203 205 207 206 197 209 257 277 281 278 299 306 315 332 348 322 264 186 198 194 210 165 72 114
163 160 160 165 158 153 165 170 174 179 185 189 186 184 178 178 180 164 185 189 202 203 209 201 196 218 264 264 279 275 297 306 329 6 7 328 290 193 195 205 194 223 49 117
167 164 164 162 156 154 157 167 161 177 190 189 183 174 168 169 171 171 182 181 196 195 206 198 195 222 256 261 270 271 293 311 340 22 19 12 31 194 204 207 215 199 66 124
162 167 166 167 168 171 173 170 179 185 181 188 182 172 166 154 183 173 187 198 197 195 201 197 201 209 229 257 270 264 285 296 356 20 13 337 46 112 173 201 207 184 153 112
169 169 167 171 171 174 173 172 176 184 179 185 173 173 169 168 182 196 184 189 193 197 202 205 194 211 215 228 264 259 269 279 337 41 62 98 119 106 123 139 173 176 177 153
Height
10603 10608 10639 10656 10649 10664 10678 10691 10704 10705 10701 10693 10711 10731 10746 10742 10750 10756 10762 10762 10763 10769 10764 10764 10764 10763 10762 10755 10747 10747 10745 10737 10731 10727 10728 10723 10718 10715 10712 10705 10699 10694 10686 10679
10577 10602 10617 10620 10624 10640 10653 10668 10688 10683 10681 10685 10685 10717 10737 10737 10741 10746 10747 10751 10756 10754 10753 10754 10753 10750 10749 10741 10737 10735 10732 10723 10715 10710 10708 10708 10706 10703 10701 10697 10693 10687 10679 10670
10564 10586 10588 10599 10609 10622 10638 10647 10655 10658 10661 10677 10674 10698 10721 10728 10730 10731 10739 10742 10743 10738 10745 10743 10739 10736 10731 10732 10727 10722 10716 10710 10704 10699 10697 10694 10692 10689 10687 10684 10680 10676 10667 10658
10549 10562 10567 10573 10589 10597 10618 10627 10629 10637 10648 10668 10654 10694 10704 10710 10714 10719 10726 10731 10725 10732 10733 10729 10721 10721 10719 10718 10714 10710 10705 10698 10693 10690 10687 10683 10680 10677 10675 10671 10668 10663 10654 10646
10536 10532 10541 10555 10566 10576 10601 10602 10610 10622 10636 10646 10657 10666 10708 10685 10700 10698 10711 10717 10718 10721 10719 10714 10709 10708 10705 10705 10702 10698 10693 10689 10684 10682 10677 10674 10672 10669 10666 10663 10659 10652 10645 10637
10500 10506 10517 10538 10546 10560 10570 10585 10596 10607 10621 10634 10654 10658 10684 10674 10675 10686 10701 10706 10708 10706 10704 10699 10696 10696 10693 10691 10690 10686 10683 10679 10676 10672 10670 10668 10665 10663 10660 10656 10650 10643 10636 10630
10467 10478 10502 10513 10530 10543 10556 10566 10578 10593 10609 10643 10629 10653 10661 10652 10664 10685 10690 10693 10693 10691 10691 10688 10687 10685 10683 10681 10678 10676 10673 10670 10667 10665 10664 10661 10661 10658 10653 10648 10642 10637 10631 10625
10439 10457 10485 10496 10508 10522 10536 10547 10564 10585 10598 10616 10617 10656 10651 10629 10663 10679 10678 10680 10678 10680 10682 10680 10679 10677 10674 10671 10669 10667 10665 10663 10662 10660 10659 10657 10656 10651 10646 10641 10636 10632 10627 10623
10418 10440 10452 10468 10483 10497 10519 10538 10555 10565 10579 10596 10617 10635 10636 10631 10653 10664 10666 10668 10669 10672 10673 10671 10671 10668 10665 10663 10662 10660 10659 10658 10656 10655 10654 10652 10648 10643 10640 10634 10631 10627 10622 10618
10394 10418 10427 10434 10453 10478 10495 10517 10527 10548 10563 10586 10607 10623 10634 10626 10643 10654 10659 10659 10662 10664 10664 10664 10663 10662 10660 10659 10658 10657 10655 10654 10652 10650 10649 10647 10643 10637 10633 10629 10627 10624 10617 10613
10380 10398 10399 10405 10434 10456 10475 10489 10507 10527 10548 10577 10597 10614 10619 10615 10633 10643 10650 10652 10654 10657 10659 10657 10656 10656 10656 10656 10655 10653 10652 10650 10648 10646 10643 10639 10635 10632 10628 10626 10625 10621 10615 10610
10360 10377 10385 10399 10420 10434 10450 10469 10488 10510 10541 10564 10585 10604 10591 10609 10627 10636 10642 10645 10647 10650 10652 10651 10651 10653 10651 10651 10650 10649 10647 10646 10644 10642 10638 10634 10629 10626 10624 10623 10622 10618 10613 10608
10347 10362 10371 10377 10403 10413 10435 10453 10474 10498 10519 10548 10572 10592 10585 10600 10616 10627 10635 10639 10642 10644 10645 10646 10646 10648 10648 10648 10647 10645 10643 10642 10639 10636 10632 10628 10625 10622 10620 10620 10619 10616 10610 10606
10325 10335 10349 10360 10380 10397 10421 10436 10458 10483 10513 10534 10560 10552 10575 10592 10605 10619 10628 10631 10637 10639 10642 10642 10642 10644 10644 10644 10643 10641 10638 10636 10634 10630 10627 10625 10622 10619 10618 10618 10616 10613 10608 10604
10317 10324 10336 10349 10368 10390 10409 10428 10449 10476 10498 10519 10538 10542 10562 10577 10592 10606 10616 10624 10629 10635 10637 10637 10637 10639 10639 10639 10639 10637 10634 10632 10630 10627 10624 10621 10618 10616 10615 10616 10614 10609 10605 10602
10309 10319 10328 10341 10356 10378 10399 10418 10437 10461 10480 10502 10517 10533 10544 10563 10583 10598 10609 10618 10623 10629 10630 10633 10633 10634 10635 10635 10635 10632 10630 10628 10626 10623 10620 10617 10614 10613 10613 10614 10612 10607 10604 10602
10303 10314 10325 10336 10350 10364 10380 10397 10422 10447 10469 10492 10512 10519 10534 10557 10578 10593 10604 10612 10618 10621 10623 10627 10628 10629 10630 10631 10631 10629 10627 10625 10623 10619 10616 10613 10611 10610 10611 10613 10612 10609 10604 10602
10301 10310 10319 10330 10340 10354 10374 10389 10416 10440 10465 10484 10502 10509 10537 10560 10577 10585 10598 10606 10613 10615 10617 10621 10623 10625 10627 10628 10627 10626 10625 10623 10620 10617 10613 10610 10608 10608 10610 10611 10611 10608 10606 10604
10300 10307 10314 10321 10333 10350 10364 10383 10404 10435 10457 10478 10483 10512 10534 10556 10571 10588 10591 10601 10605 10608 10613 10618 10620 10622 10624 10625 10624 10623 10622 10620 10617 10614 10610 10608 10607 10608 10609 10610 10610 10608 10607 10606
10298 10305 10316 10328 10341 10350 10364 10383 10409 10430 10448 10462 10485 10506 10528 10543 10563 10578 10589 10594 10599 10603 10609 10614 10616 10619 10621 10622 10622 10621 10620 10617 10615 10612 10609 10608 10607 10608 10607 10608 10609 10608 10608 10608
10303 10312 10321 10329 10340 10353 10363 10378 10401 10421 10441 10466 10482 10503 10521 10535 10555 10566 10576 10585 10592 10597 10603 10607 10612 10616 10618 10619 10619 10618 10618 10616 10613 10610 10608 10608 10606 10605 10605 10609 10609 10608 10607 10607
10306 10312 10320 10332 10345 10356 10367 10382 10406 10424 10447 10461 10475 10491 10511 10528 10543 10556 10569 10579 10587 10593 10598 10603 10609 10613 10615 10616 10617 10617 10617 10615 10612 10609 10607 10606 10605 10605 10606 10608 10609 10609 10608 10606
10308 10312 10323 10335 10348 10361 10378 10389 10407 10428 10443 10456 10474 10488 10505 10523 10538 10554 10569 10578 10581 10590 10595 10602 10605 10609 10612 10614 10615 10615 10616 10615 10612 10608 10607 10607 10604 10603 10605 10607 10609 10610 10608 10606
10314 10318 10326 10339 10349 10358 10370 10394 10412 10425 10442 10458 10474 10488 10506 10520 10534 10547 10561 10571 10577 10583 10590 10596 10603 10607 10610 10612 10613 10614 10615 10615 10612 10609 10608 10608 10606 10605 10605 10607 10609 10610 10609 10608
10320 10325 10331 10341 10350 10360 10373 10389 10404 10420 10437 10453 10474 10490 10499 10510 10530 10542 10552 10562 10571 10577 10585 10590 10601 10604 10608 10611 10613 10614 10615 10616 10613 10611 10609 10608 10608 10607 10606 10607 10608 10610 10611 10611
10324 10329 10334 10342 10353 10364 10378 10390 10403 10414 10431 10446 10466 10484 10492 10502 10517 10532 10545 10555 10567 10576 10581 10588 10596 10601 10607 10610 10611 10613 10614 10617 10615 10613 10610 10609 10609 10608 10608 10608 10608 10610 10612 10612